Location: Northern Prairie Star Party
(53.2167°N, 112.5333°W)
Time: 07:41:02
(UTC-06:00)

MaSat-1 - Visible Passes

Search period start: 30 October 2014 00:00
Search period end: 08 November 2014 23:00
Orbit: 271 x 602 km, 69.4° (Epoch: 29 October)

Date Brightness Start Highest point End Pass type
(mag) Time Alt. Az. Time Alt. Az. Time Alt. Az.
30 Oct ? 06:50:17 10° N 06:52:04 16° NE 06:53:45 10° E visible
31 Oct ? 06:10:10 10° NNE 06:10:37 10° NNE 06:11:03 10° NE visible
31 Oct ? 07:43:55 10° NNW 07:46:36 83° NE 07:49:02 10° SE visible
01 Nov ? 07:02:31 11° NNW 07:04:52 36° NE 07:07:11 10° ESE visible
02 Nov ? 05:21:45 17° NNE 05:22:34 20° NE 05:24:31 10° E visible
03 Nov ? 04:40:36 11° ENE 04:40:36 11° ENE 04:40:50 10° ENE visible
03 Nov ? 06:13:51 20° NW 06:15:23 62° WSW 06:17:46 10° SSE visible
04 Nov ? 05:32:17 50° NE 05:32:17 50° NE 05:34:38 10° SE visible
05 Nov ? 04:50:20 12° E 04:50:20 12° E 04:50:38 10° ESE visible
05 Nov ? 06:23:32 19° WSW 06:23:39 19° WSW 06:25:27 10° SSW visible
06 Nov ? 05:41:11 19° S 05:41:11 19° S 05:42:01 10° SSE visible
